• In Uzbekistan
  • List of Countries
  • For 7 days
  • Water Temperature
  • Satellite Maps
  • Weather Map
  • Weather Widgets
  • user-avatar
    Login

    Hourly Weather Laksau

    Today, 18 October, Wednesday

    Time Temperature Precipitation Wind Pressure Humidity
    00:00 +20°C° 0 mm 1 mps 703 mmHg 89%
    01:00 +19°C° 0 mm 1 mps 702 mmHg 90%
    02:00 +19°C° 0 mm 1 mps 702 mmHg 90%
    03:00 +19°C° 0 mm 1 mps 702 mmHg 91%
    04:00 +19°C° 0 mm 1 mps 702 mmHg 91%
    05:00 +19°C° 0 mm 1 mps 703 mmHg 89%
    06:00 +19°C° 0 mm 1 mps 703 mmHg 87%
    07:00 +20°C° 0 mm 1 mps 703 mmHg 85%
    08:00 +22°C° 0 mm 1 mps 704 mmHg 77%
    09:00 +24°C° 0 mm 1 mps 704 mmHg 69%
    10:00 +26°C° 0 mm 2 mps 705 mmHg 60%
    11:00 +27°C° 0 mm 2 mps 704 mmHg 59%
    12:00 +28°C° 0 mm 2 mps 704 mmHg 58%
    13:00 +29°C° 0 mm 2 mps 704 mmHg 57%
    14:00 +28°C° 0 mm 2 mps 703 mmHg 61%
    15:00 +27°C° 0 mm 2 mps 703 mmHg 65%
    16:00 +26°C° 0 mm 2 mps 702 mmHg 70%
    17:00 +25°C° 0 mm 1 mps 702 mmHg 76%
    18:00 +23°C° 0 mm 1 mps 702 mmHg 81%
    19:00 +22°C° 0 mm 1 mps 702 mmHg 87%
    20:00 +21°C° 0 mm 1 mps 703 mmHg 88%
    21:00 +21°C° 0 mm 1 mps 703 mmHg 89%
    22:00 +21°C° 0 mm 1 mps 704 mmHg 90%
    23:00 +21°C° 0 mm 1 mps 703 mmHg 91%

    Tomorrow, 19 October, Thursday

    Time Temperature Precipitation Wind Pressure Humidity
    00:00 +21°C° 0 mm 1 mps 703 mmHg 92%
    01:00 +21°C° 0 mm 1 mps 703 mmHg 92%
    02:00 +21°C° 0 mm 1 mps 703 mmHg 93%
    03:00 +21°C° 0 mm 1 mps 702 mmHg 93%
    04:00 +21°C° 0 mm 1 mps 702 mmHg 93%
    05:00 +21°C° 0.1 mm 1 mps 702 mmHg 92%
    06:00 +21°C° 0.1 mm 1 mps 703 mmHg 91%
    07:00 +22°C° 0.1 mm 1 mps 703 mmHg 90%
    08:00 +23°C° 0 mm 1 mps 704 mmHg 86%
    09:00 +24°C° 0 mm 1 mps 704 mmHg 81%
    10:00 +26°C° 0 mm 1 mps 704 mmHg 77%
    11:00 +26°C° 0 mm 1 mps 704 mmHg 74%
    12:00 +27°C° 0 mm 2 mps 703 mmHg 72%
    13:00 +28°C° 0 mm 2 mps 703 mmHg 70%
    14:00 +27°C° 0.1 mm 2 mps 702 mmHg 70%
    15:00 +27°C° 0.1 mm 2 mps 702 mmHg 71%
    16:00 +27°C° 0.1 mm 2 mps 701 mmHg 72%
    17:00 +26°C° 0 mm 1 mps 701 mmHg 78%
    18:00 +24°C° 0 mm 1 mps 702 mmHg 84%
    19:00 +23°C° 0 mm 1 mps 702 mmHg 90%
    20:00 +22°C° 0 mm 1 mps 702 mmHg 91%
    21:00 +22°C° 0 mm 1 mps 703 mmHg 92%
    22:00 +22°C° 0 mm 1 mps 703 mmHg 93%
    23:00 +21°C° 0 mm 1 mps 703 mmHg 94%

    Day after tomorrow, 20 October, Friday

    Time Temperature Precipitation Wind Pressure Humidity
    00:00 +21°C° 0 mm 1 mps 703 mmHg 94%
    01:00 +21°C° 0 mm 1 mps 703 mmHg 95%
    02:00 +21°C° 0 mm 1 mps 702 mmHg 95%
    03:00 +21°C° 0 mm 1 mps 702 mmHg 94%
    04:00 +20°C° 0 mm 1 mps 702 mmHg 94%
    05:00 +21°C° 0 mm 1 mps 702 mmHg 92%
    06:00 +21°C° 0 mm 1 mps 703 mmHg 90%
    07:00 +22°C° 0 mm 1 mps 703 mmHg 88%
    08:00 +25°C° 0 mm 1 mps 704 mmHg 77%
    09:00 +27°C° 0 mm 1 mps 704 mmHg 66%
    10:00 +30°C° 0 mm 1 mps 705 mmHg 55%
    11:00 +31°C° 0 mm 1 mps 704 mmHg 53%
    12:00 +32°C° 0 mm 1 mps 704 mmHg 51%
    13:00 +32°C° 0 mm 1 mps 703 mmHg 49%
    14:00 +31°C° 0 mm 1 mps 702 mmHg 55%
    15:00 +30°C° 0 mm 1 mps 701 mmHg 62%
    16:00 +28°C° 0 mm 1 mps 700 mmHg 68%
    17:00 +27°C° 0 mm 1 mps 701 mmHg 75%
    18:00 +25°C° 0 mm 1 mps 701 mmHg 82%
    19:00 +24°C° 0 mm 1 mps 701 mmHg 89%
    20:00 +23°C° 0 mm 1 mps 702 mmHg 90%
    21:00 +21°C° 0 mm 0 mps 702 mmHg 91%
    22:00 +21°C° 0 mm 0 mps 703 mmHg 92%
    23:00 +21°C° 0 mm 0 mps 702 mmHg 92%

    21 October, Saturday

    Time Temperature Precipitation Wind Pressure Humidity
    00:00 +20°C° 0 mm 0 mps 702 mmHg 93%
    01:00 +20°C° 0 mm 0 mps 702 mmHg 93%
    02:00 +20°C° 0.3 mm 0 mps 702 mmHg 94%
    03:00 +20°C° 0.3 mm 0 mps 701 mmHg 95%
    04:00 +19°C° 0.3 mm 0 mps 701 mmHg 95%
    05:00 +20°C° 0.4 mm 0 mps 701 mmHg 94%
    06:00 +20°C° 0.4 mm 0 mps 702 mmHg 92%
    07:00 +21°C° 0.4 mm 0 mps 702 mmHg 91%
    08:00 +23°C° 0 mm 0 mps 703 mmHg 80%
    09:00 +26°C° 0 mm 0 mps 703 mmHg 68%
    10:00 +29°C° 0 mm 0 mps 704 mmHg 57%
    11:00 +30°C° 0.4 mm 1 mps 703 mmHg 61%
    12:00 +30°C° 0.4 mm 1 mps 702 mmHg 64%
    13:00 +30°C° 0.4 mm 1 mps 701 mmHg 67%
    14:00 +29°C° 1.4 mm 1 mps 701 mmHg 73%
    15:00 +28°C° 1.4 mm 1 mps 700 mmHg 79%
    16:00 +27°C° 1.4 mm 1 mps 700 mmHg 85%
    17:00 +26°C° 0.2 mm 1 mps 700 mmHg 88%
    18:00 +25°C° 0.2 mm 1 mps 700 mmHg 91%
    19:00 +24°C° 0.2 mm 1 mps 700 mmHg 94%
    20:00 +24°C° 0 mm 1 mps 701 mmHg 95%
    21:00 +23°C° 0 mm 1 mps 701 mmHg 95%
    22:00 +23°C° 0 mm 1 mps 702 mmHg 96%
    23:00 +23°C° 0 mm 1 mps 702 mmHg 96%

    22 October, Sunday

    Time Temperature Precipitation Wind Pressure Humidity
    00:00 +23°C° 0 mm 1 mps 701 mmHg 96%
    01:00 +23°C° 0 mm 1 mps 701 mmHg 97%
    02:00 +22°C° 0.1 mm 1 mps 701 mmHg 97%
    03:00 +22°C° 0.1 mm 1 mps 701 mmHg 97%
    04:00 +22°C° 0.1 mm 1 mps 700 mmHg 97%
    05:00 +20°C° 0.1 mm 0 mps 701 mmHg 96%
    06:00 +20°C° 0.1 mm 0 mps 701 mmHg 94%
    07:00 +21°C° 0.1 mm 0 mps 702 mmHg 93%
    08:00 +23°C° 0.1 mm 0 mps 702 mmHg 82%
    09:00 +27°C° 0.1 mm 1 mps 703 mmHg 71%
    10:00 +30°C° 0.1 mm 1 mps 703 mmHg 60%
    11:00 +30°C° 0.3 mm 1 mps 702 mmHg 62%
    12:00 +30°C° 0.3 mm 1 mps 702 mmHg 64%
    13:00 +30°C° 0.3 mm 1 mps 701 mmHg 66%
    14:00 +29°C° 1 mm 1 mps 700 mmHg 72%
    15:00 +28°C° 1 mm 1 mps 700 mmHg 78%
    16:00 +27°C° 1 mm 1 mps 700 mmHg 84%
    17:00 +26°C° 0.4 mm 1 mps 700 mmHg 88%
    18:00 +25°C° 0.4 mm 1 mps 700 mmHg 91%
    19:00 +24°C° 0.4 mm 1 mps 701 mmHg 95%
    20:00 +23°C° 0.1 mm 1 mps 701 mmHg 95%
    21:00 +23°C° 0.1 mm 1 mps 702 mmHg 95%
    22:00 +23°C° 0.1 mm 1 mps 702 mmHg 96%
    23:00 +23°C° 0.1 mm 1 mps 702 mmHg 96%

    23 October, Monday

    Time Temperature Precipitation Wind Pressure Humidity
    00:00 +22°C° 0.1 mm 1 mps 702 mmHg 96%
    01:00 +22°C° 0.1 mm 1 mps 701 mmHg 96%
    02:00 +22°C° 0.1 mm 1 mps 702 mmHg 96%
    03:00 +22°C° 0.1 mm 1 mps 702 mmHg 96%
    04:00 +22°C° 0.1 mm 1 mps 702 mmHg 96%
    05:00 +22°C° 0.1 mm 1 mps 702 mmHg 95%
    06:00 +22°C° 0.1 mm 1 mps 703 mmHg 95%
    07:00 +22°C° 0.1 mm 1 mps 703 mmHg 94%
    08:00 +23°C° 0 mm 1 mps 703 mmHg 90%
    09:00 +23°C° 0 mm 1 mps 704 mmHg 86%
    10:00 +24°C° 0 mm 2 mps 704 mmHg 82%
    11:00 +24°C° 0.1 mm 2 mps 704 mmHg 78%
    12:00 +25°C° 0.1 mm 2 mps 703 mmHg 74%
    13:00 +26°C° 0.1 mm 2 mps 703 mmHg 70%
    14:00 +25°C° 0 mm 2 mps 702 mmHg 72%
    15:00 +24°C° 0 mm 2 mps 702 mmHg 74%
    16:00 +23°C° 0 mm 2 mps 702 mmHg 75%
    17:00 +21°C° 0 mm 2 mps 703 mmHg 78%
    18:00 +20°C° 0 mm 2 mps 703 mmHg 80%
    19:00 +19°C° 0 mm 2 mps 703 mmHg 83%
    20:00 +19°C° 0 mm 2 mps 704 mmHg 83%
    21:00 +19°C° 0 mm 2 mps 704 mmHg 84%
    22:00 +18°C° 0 mm 2 mps 705 mmHg 84%
    23:00 +18°C° 0 mm 2 mps 704 mmHg 84%
    Show more